[[{"header":{"parameterUnit":"m.s-1","parameterCategory":2,"la1":30.2991,"la2":30.254,"lo1":-89.0895,"lo2":-89.0444,"dy":0.0017,"dx":0.0017,"nx":28,"ny":28,"refTime":"2023-08-23T09:00:00:Z","depth":"0","parameterNumber":2,"parameterNumberName":"U-component_of_CURRENTS"},"data":[0,0,0,0,0,0,0,0,0,0,0,0,0,0,0,0,0,0,0,0,0,0,0,0,0,0,0,0,0,0,0,0,0,0,0,0,0,0,0,0,0,0,0,0,0,0,0,0,0,0,0,0,0,0,0,0,0,0,0.2232,0.2232,0,0.2213,0.2212,0.2212,0.2183,0.2182,0.2182,0.2182,0.2141,0.2141,0.214,0,0,0,0,0,0,0,0,0,0,0,0,0,0.2221,0.2221,0.2232,0.2232,0.2232,0.2213,0.2212,0.2212,0.2183,0.2182,0.2182,0.2182,0.2142,0.2141,0.214,0,0,0,0,0,0,0,0,0,0,0,0,0,0.2213,0.2221,0.2232,0.2217,0.2216,0.2213,0.2212,0.2212,0.2183,0.2182,0.2182,0.2182,0.2142,0.2141,0.2139,0.2139,0,0,0.2136,0.2135,0,0,0,0,0,0,0,0,0.2214,0.2213,0.2219,0.2218,0.2217,0.2202,0.2194,0.2187,0.2183,0.2192,0.2182,0.2182,0.2162,0.2159,0.2152,0.2137,0.2135,0.2135,0.2135,0.2134,0.2134,0,0,0,0,0,0,0,0.2215,0.2214,0.2221,0.2219,0.2218,0.2205,0.2203,0.2192,0.2177,0.2191,0.219,0.2193,0.2161,0.2154,0.2151,0.2135,0.2135,0.2134,0.2134,0.2133,0.2319,0.2324,0,0,0,0,0,0,0.2225,0.2215,0.2222,0.2221,0.2218,0.2205,0.2203,0.2205,0.2177,0.2174,0.2193,0.2192,0.2156,0.2153,0.215,0.2284,0.2134,0.2133,0.2132,0.2313,0.232,0.2326,0,0,0,0,0,0,0.2225,0.2225,0.2222,0.222,0.2219,0.2207,0.2208,0.2205,0.2211,0.2179,0.2175,0.2205,0.2156,0.2151,0.2181,0.2277,0.2132,0.2131,0.2306,0.2315,0.2323,0.2465,0,0,0,0,0,0,0.2224,0.2225,0.2241,0.2221,0.222,0.2263,0.2209,0.2205,0.2214,0.2212,0.2188,0.2182,0.2155,0.2183,0.218,0.2272,0.213,0.2299,0.231,0.232,0.2453,0.2477,0.2498,0,0,0,0,0,0.2224,0.2271,0.2242,0.2244,0.2238,0.2265,0.2265,0.2251,0.2215,0.2248,0.2229,0.2184,0.2251,0.2185,0.218,0.2275,0.2294,0.2307,0.2319,0.2443,0.2472,0.2497,0,0,0,0,0,0,0.2303,0.2272,0.224,0.2281,0.2283,0.2263,0.2297,0.2264,0.227,0.2269,0.2217,0.2214,0.23,0.2267,0.2196,0.2372,0.2281,0.2294,0.2378,0.2405,0.2427,0.2428,0.2129,0,0,0,0,0,0.2317,0.2331,0.2305,0.2344,0.2346,0.2313,0.2322,0.231,0.2306,0.2307,0.2289,0.2299,0.2348,0.2354,0.2389,0.2439,0.2431,0.2517,0.2539,0.2558,0.2564,0.2632,0.2659,0.2368,0.2368,0.2368,0,0,0.2364,0.2347,0.2359,0.2359,0.2354,0.2385,0.232,0.2355,0.2388,0.2302,0.2356,0.2374,0.2386,0.2478,0.2514,0.2454,0.2647,0.2574,0.2589,0.2585,0.2648,0.2675,0.2699,0.2377,0.2375,0.2374,0,0,0.2456,0.2443,0.2473,0.2482,0.2481,0.2466,0.2478,0.2468,0.2476,0.2517,0.2503,0.258,0.2595,0.2655,0.2677,0.2844,0.2777,0.286,0.2946,0.3013,0.3036,0.3056,0.3108,0.3131,0.2853,0.2853,0.2854,0,0.2513,0.2517,0.2498,0.2532,0.2532,0.2505,0.2533,0.2565,0.2571,0.2577,0.2566,0.2664,0.27,0.2811,0.2899,0.2897,0.2891,0.2829,0.3037,0.3056,0.3074,0.3122,0.3145,0.2862,0.2861,0.286,0.2859,0,0.2599,0.2614,0.2648,0.2654,0.2674,0.2704,0.2717,0.2751,0.2741,0.2749,0.2848,0.2902,0.2946,0.3014,0.3007,0.3167,0.3111,0.3065,0.2951,0.3111,0.3153,0.3175,0.2874,0.2871,0.2868,0.2866,0,0,0.2657,0.2691,0.2691,0.2687,0.2717,0.273,0.2815,0.2841,0.2867,0.2938,0.2978,0.3147,0.3145,0.3178,0.3201,0.3284,0.3458,0.3228,0.3228,0.3249,0.3579,0.3466,0.3477,0.3412,0.3417,0.342,0.3565,0,0.27,0.2753,0.2756,0.2805,0.2818,0.2824,0.2888,0.2932,0.296,0.3018,0.3111,0.318,0.3215,0.3238,0.3346,0.3414,0.3517,0.3422,0.3447,0.3449,0.3302,0.35,0.3334,0.344,0.3585,0.3589,0.3591,0,0.2733,0.2751,0.2795,0.2811,0.2816,0.2855,0.2879,0.2937,0.3037,0.3063,0.3153,0.3195,0.3366,0.3359,0.3569,0.3484,0.3567,0.3623,0.3628,0.348,0.3376,0.3304,0.3473,0.337,0.3624,0.3621,0.3619,0,0.2703,0.2753,0.2766,0.2782,0.2835,0.2844,0.2862,0.294,0.2969,0.3082,0.3111,0.3272,0.3343,0.3484,0.3619,0.3592,0.3812,0.3779,0.3765,0.3756,0.3601,0.3571,0.3642,0.3956,0.3956,0.3956,0.3955,0,0.2706,0.2712,0.275,0.2762,0.2764,0.2812,0.2831,0.2877,0.2958,0.3,0.3121,0.3184,0.3375,0.3502,0.3634,0.3757,0.3827,0.3826,0.3804,0.365,0.3624,0.3509,0.3445,0.3961,0.396,0.3959,0.3958,0,0.2668,0.2708,0.2713,0.2747,0.2753,0.2749,0.2779,0.2801,0.2885,0.2945,0.2979,0.3139,0.3302,0.3471,0.3695,0.3748,0.3778,0.3915,0.3713,0.3665,0.3526,0.3476,0.3425,0.3333,0.394,0.3938,0.3937,0,0.265,0.2653,0.2671,0.2665,0.2672,0.2678,0.2683,0.2752,0.2771,0.2908,0.2928,0.3099,0.3214,0.3477,0.3605,0.3793,0.3721,0.3719,0.3671,0.3534,0.3465,0.3353,0.3272,0.3548,0.3544,0.354,0.3537,0,0.2587,0.2593,0.2597,0.258,0.2573,0.2566,0.2573,0.2589,0.2678,0.2739,0.2832,0.294,0.3173,0.328,0.3481,0.3578,0.3497,0.3647,0.3573,0.3236,0.3052,0.2943,0.3429,0.3505,0.3508,0.351,0.3512,0.3513,0.2514,0.2488,0.2486,0.2459,0.2454,0.2431,0.2402,0.2442,0.2469,0.2546,0.2708,0.2833,0.3011,0.3273,0.3315,0.3254,0.3299,0.3207,0.3187,0.3109,0.2927,0.333,0.332,0.3322,0.3324,0.3325,0.3327,0,0.2387,0.2378,0.2356,0.2316,0.2269,0.2306,0.2301,0.2272,0.2274,0.2417,0.2515,0.2706,0.279,0.2908,0.2924,0.283,0.2738,0.2752,0.258,0.2549,0.2979,0.2864,0.2667,0.2667,0.2668,0.2668,0.2668,0.2668,0.2325,0.226,0.2245,0.2132,0.2111,0.201,0.1994,0.1997,0.2065,0.2156,0.2258,0.2423,0.2596,0.264,0.2539,0.2474,0.2307,0.2179,0.2217,0.2527,0.2568,0.2607,0.2488,0.2215,0.2215,0.1688,0.1684,0.1681]},{"header":{"parameterUnit":"m.s-1","parameterCategory":2,"la1":30.2991,"la2":30.254,"lo1":-89.0895,"lo2":-89.0444,"dy":0.0017,"dx":0.0017,"nx":28,"ny":28,"refTime":"2023-08-23T09:00:00:Z","depth":"0","parameterNumber":3,"parameterNumberName":"V-component_of_CURRENTS"},"data":[0,0,0,0,0,0,0,0,0,0,0,0,0,0,0,0,0,0,0,0,0,0,0,0,0,0,0,0,0,0,0,0,0,0,0,0,0,0,0,0,0,0,0,0,0,0,0,0,0,0,0,0,0,0,0,0,0,0,0.0252,0.0252,0,0.0184,0.0184,0.0183,0.0131,0.0131,0.013,0.013,0.0063,0.0062,0.0061,0,0,0,0,0,0,0,0,0,0,0,0,0,0.0293,0.0293,0.0252,0.0252,0.0251,0.0184,0.0184,0.0183,0.0131,0.0131,0.013,0.0129,0.0064,0.0062,0.0061,0,0,0,0,0,0,0,0,0,0,0,0,0,0.0256,0.0293,0.0253,0.0216,0.0212,0.0185,0.0184,0.0182,0.0131,0.0131,0.013,0.0129,0.0064,0.0062,0.0061,0.0065,0,0,0.0055,0.0054,0,0,0,0,0,0,0,0,0.0258,0.0255,0.0223,0.0219,0.0214,0.0165,0.0173,0.0143,0.0132,0.0163,0.013,0.0129,0.0098,0.0093,0.0083,0.0062,0.0059,0.0055,0.0054,0.0053,0.0052,0,0,0,0,0,0,0,0.0261,0.0257,0.0226,0.0222,0.0217,0.0188,0.0183,0.0167,0.0136,0.016,0.0156,0.0148,0.0095,0.0085,0.0081,0.0058,0.0055,0.0053,0.0052,0.0051,0.0154,0.0158,0,0,0,0,0,0,0.0271,0.026,0.0228,0.0224,0.0234,0.0188,0.0182,0.0182,0.0136,0.0128,0.0148,0.0145,0.0088,0.0083,0.0078,0.0194,0.0053,0.0051,0.005,0.0151,0.0155,0.0159,0,0,0,0,0,0,0.0273,0.027,0.0231,0.0239,0.0232,0.0189,0.0189,0.0181,0.0171,0.0127,0.0119,0.0146,0.0088,0.0081,0.0097,0.0187,0.005,0.0048,0.0146,0.0152,0.0157,0.0353,0,0,0,0,0,0,0.0274,0.0271,0.028,0.024,0.0232,0.0242,0.0189,0.018,0.0167,0.0162,0.0123,0.0116,0.0086,0.0101,0.0096,0.0182,0.0047,0.0141,0.0149,0.0156,0.0342,0.0365,0.0384,0,0,0,0,0,0.0276,0.032,0.0282,0.0278,0.0245,0.0243,0.0238,0.0203,0.0168,0.0186,0.0164,0.0117,0.0144,0.0102,0.0095,0.0183,0.0138,0.0147,0.0155,0.0332,0.036,0.0384,0,0,0,0,0,0,0.0368,0.0316,0.0275,0.0304,0.0277,0.0235,0.0252,0.021,0.0203,0.0207,0.0147,0.0141,0.0197,0.0157,0.0112,0.0237,0.0141,0.0149,0.0278,0.0304,0.0325,0.0396,0.0045,0,0,0,0,0,0.0383,0.0393,0.0334,0.0364,0.0348,0.0292,0.0284,0.0263,0.0246,0.024,0.0212,0.0205,0.0228,0.0236,0.0239,0.0291,0.025,0.035,0.0371,0.039,0.0445,0.0439,0.0465,0.0188,0.0188,0.0188,0,0,0.0437,0.0403,0.0415,0.0382,0.0354,0.0391,0.0288,0.0302,0.0354,0.0237,0.0304,0.0271,0.0256,0.0331,0.0354,0.0309,0.0445,0.0401,0.0417,0.0463,0.0451,0.0477,0.0501,0.0194,0.0193,0.0192,0,0,0.0559,0.0505,0.0552,0.0536,0.0501,0.0474,0.0479,0.0441,0.0441,0.0482,0.0436,0.0471,0.0462,0.0506,0.0519,0.0661,0.0554,0.0639,0.0812,0.0804,0.0827,0.0846,0.0817,0.0832,0.0656,0.0656,0.0656,0,0.063,0.0653,0.0572,0.0614,0.0619,0.0522,0.0586,0.0592,0.0576,0.0594,0.0539,0.0592,0.0577,0.07,0.0764,0.072,0.0661,0.071,0.0832,0.0851,0.0867,0.0832,0.0846,0.0666,0.0665,0.0664,0.0663,0,0.0769,0.0793,0.0825,0.0837,0.0844,0.0879,0.0858,0.0879,0.0846,0.0842,0.0917,0.0897,0.0927,0.0939,0.0902,0.103,0.0932,0.085,0.0764,0.0907,0.086,0.0872,0.0681,0.0678,0.0675,0.0672,0,0,0.0898,0.092,0.0927,0.0938,0.095,0.0957,0.1067,0.1104,0.1154,0.1164,0.1238,0.1318,0.1261,0.1277,0.1226,0.1251,0.1322,0.1113,0.1108,0.1083,0.1269,0.1151,0.115,0.1222,0.1226,0.1229,0.1184,0,0.1017,0.1115,0.1114,0.1216,0.1238,0.1213,0.1309,0.1345,0.1347,0.1398,0.1411,0.1454,0.14,0.1395,0.1432,0.1331,0.1362,0.1341,0.1139,0.1135,0.1011,0.1165,0.1061,0.1007,0.1194,0.1196,0.1197,0,0.1107,0.1156,0.1268,0.1324,0.1338,0.141,0.1472,0.1552,0.1626,0.1629,0.1692,0.165,0.1737,0.1628,0.1612,0.1574,0.1475,0.1398,0.139,0.1233,0.1041,0.0899,0.1019,0.0837,0.1213,0.1212,0.1211,0,0.1116,0.1234,0.1309,0.1333,0.1421,0.1478,0.1532,0.1614,0.1673,0.176,0.1787,0.185,0.1844,0.1785,0.1646,0.161,0.1567,0.1478,0.13,0.1286,0.1146,0.1115,0.1075,0.1495,0.1495,0.1495,0.1495,0,0.1169,0.1223,0.1309,0.1343,0.1441,0.1497,0.1608,0.1669,0.1776,0.186,0.1888,0.1942,0.1872,0.182,0.1703,0.154,0.1607,0.1388,0.1296,0.1207,0.1184,0.0972,0.0904,0.1493,0.1494,0.1494,0.1494,0,0.1138,0.1199,0.1278,0.1397,0.143,0.149,0.1627,0.1712,0.1805,0.1913,0.1942,0.1999,0.1938,0.184,0.1716,0.1581,0.1329,0.1366,0.1261,0.116,0.0826,0.0774,0.0683,0.0608,0.1193,0.119,0.1188,0,0.1134,0.1167,0.1285,0.1335,0.1388,0.1489,0.1571,0.17,0.1796,0.194,0.1994,0.1987,0.1997,0.1788,0.1556,0.1349,0.1218,0.1088,0.1049,0.0853,0.0726,0.0693,0.0636,0.0927,0.0923,0.0919,0.0916,0,0.1129,0.1158,0.1227,0.133,0.141,0.1517,0.1643,0.1718,0.1879,0.197,0.2072,0.2095,0.191,0.1677,0.1379,0.1207,0.094,0.1007,0.0843,0.0587,0.0515,0.0378,0.0892,0.0885,0.0888,0.0891,0.0892,0.0893,0.1114,0.1152,0.1237,0.1328,0.1422,0.1541,0.1628,0.1765,0.1903,0.2059,0.2093,0.214,0.1793,0.1392,0.1145,0.06,0.0712,0.0431,0.0403,0.0403,0.0295,0.0743,0.0598,0.06,0.0601,0.0602,0.0603,0,0.1103,0.1153,0.124,0.1355,0.1447,0.1514,0.1678,0.1771,0.1908,0.2055,0.214,0.1958,0.152,0.1095,0.0396,0.0059,-0.002,-0.0119,-0.0177,-0.0189,0.0221,0.0169,-0.0122,-0.0121,-0.0121,-0.0121,-0.0121,-0.0121,0.1097,0.116,0.121,0.1345,0.1432,0.1562,0.165,0.1778,0.1905,0.2004,0.2019,0.2038,0.163,0.0502,-0.0296,-0.046,-0.0612,-0.0685,-0.0701,-0.0443,-0.0394,-0.0347,-0.0412,-0.082,-0.082,-0.1129,-0.1132,-0.1135]}],[{"header":{"parameterUnit":"m.s-1","parameterCategory":2,"la1":30.2991,"la2":30.254,"lo1":-89.0895,"lo2":-89.0444,"dy":0.0017,"dx":0.0017,"nx":28,"ny":28,"refTime":"2023-08-23T09:00:00:Z","depth":"2","parameterNumber":2,"parameterNumberName":"U-component_of_CURRENTS"},"data":[0,0,0,0,0,0,0,0,0,0,0,0,0,0,0,0,0,0,0,0,0,0,0,0,0,0,0,0,0,0,0,0,0,0,0,0,0,0,0,0,0,0,0,0,0,0,0,0,0,0,0,0,0,0,0,0,0,0,0.2102,0.2103,0,0.2234,0.2236,0.2238,0.2365,0.2366,0.2367,0.2368,0.2552,0.2556,0.256,0,0,0,0,0,0,0,0,0,0,0,0,0,0.2082,0.2081,0.2102,0.2103,0.2104,0.2233,0.2236,0.2238,0.2365,0.2366,0.2367,0.2368,0.2551,0.2555,0.256,0,0,0,0,0,0,0,0,0,0,0,0,0,0.2147,0.2081,0.2102,0.2177,0.2184,0.2233,0.2236,0.2239,0.2365,0.2366,0.2368,0.2369,0.2549,0.2555,0.2561,0.2571,0,0,0.2579,0.2582,0,0,0,0,0,0,0,0,0.2143,0.2148,0.2165,0.2172,0.218,0.2277,0.2296,0.235,0.2364,0.2305,0.2368,0.2369,0.2459,0.2472,0.2505,0.258,0.2588,0.258,0.2584,0.2586,0.2588,0,0,0,0,0,0,0,0.2138,0.2144,0.2163,0.2166,0.2175,0.2244,0.2255,0.2308,0.238,0.231,0.2318,0.2319,0.2465,0.2498,0.251,0.259,0.258,0.2585,0.2589,0.2591,0.2787,0.2788,0,0,0,0,0,0,0.2097,0.2139,0.2158,0.2166,0.2155,0.2243,0.2255,0.2251,0.2378,0.2396,0.2318,0.2324,0.2487,0.2503,0.2517,0.2669,0.2586,0.2592,0.2595,0.2785,0.2787,0.2789,0,0,0,0,0,0,0.2096,0.2098,0.2153,0.215,0.216,0.224,0.2236,0.2253,0.2329,0.2382,0.2403,0.2379,0.2489,0.2508,0.2608,0.2672,0.2595,0.26,0.2784,0.2786,0.2788,0.2889,0,0,0,0,0,0,0.2095,0.2096,0.2106,0.2146,0.2159,0.2224,0.2234,0.2254,0.232,0.2332,0.244,0.2457,0.2492,0.2599,0.2614,0.2679,0.2605,0.2782,0.2785,0.2787,0.2883,0.2894,0.2903,0,0,0,0,0,0.2094,0.2113,0.2106,0.211,0.216,0.2225,0.2242,0.2307,0.2322,0.2377,0.2441,0.2455,0.2627,0.2606,0.2623,0.2691,0.278,0.2784,0.2787,0.2879,0.2892,0.2903,0,0,0,0,0,0,0.2153,0.2127,0.2122,0.2142,0.219,0.2245,0.2294,0.2325,0.2418,0.2437,0.2486,0.2508,0.262,0.2629,0.2603,0.275,0.2702,0.2709,0.2765,0.2778,0.2788,0.2696,0.261,0,0,0,0,0,0.2149,0.2134,0.2152,0.2177,0.2192,0.2243,0.2282,0.2326,0.2393,0.2438,0.2509,0.2573,0.2639,0.2688,0.2748,0.2831,0.2789,0.2878,0.2889,0.2897,0.2831,0.2822,0.2824,0.28,0.28,0.28,0,0,0.2171,0.2162,0.2154,0.2184,0.222,0.2239,0.2276,0.2349,0.2392,0.244,0.2549,0.2621,0.2668,0.2772,0.282,0.2796,0.2899,0.2902,0.2909,0.2836,0.2825,0.2827,0.2829,0.2803,0.2802,0.2802,0,0,0.2184,0.2207,0.2177,0.2209,0.2251,0.2287,0.2308,0.2385,0.2459,0.2562,0.26,0.269,0.2814,0.2849,0.2879,0.2966,0.2953,0.3014,0.2998,0.2994,0.2994,0.2994,0.3011,0.3011,0.3018,0.3018,0.3018,0,0.2215,0.2179,0.22,0.2191,0.2216,0.2298,0.2305,0.2387,0.2501,0.2548,0.2612,0.2756,0.2832,0.2889,0.2941,0.2988,0.2983,0.2962,0.3005,0.3003,0.3001,0.3017,0.3016,0.3024,0.3023,0.3022,0.3022,0,0.2159,0.2177,0.2187,0.217,0.2212,0.2263,0.2331,0.2422,0.2521,0.2584,0.2711,0.2815,0.2883,0.2953,0.2987,0.302,0.3026,0.3024,0.2971,0.3009,0.3025,0.3022,0.3031,0.3029,0.3028,0.3026,0,0,0.2123,0.2135,0.2142,0.216,0.2214,0.2256,0.2326,0.2409,0.2474,0.261,0.2679,0.2819,0.2876,0.2904,0.2974,0.2981,0.3033,0.3004,0.3001,0.3012,0.3039,0.2949,0.2937,0.305,0.3049,0.3048,0.308,0,0.2086,0.2072,0.2078,0.2123,0.2143,0.2228,0.2292,0.2385,0.2509,0.2617,0.2708,0.2822,0.286,0.2941,0.2945,0.3019,0.3017,0.3023,0.3001,0.2999,0.2907,0.2926,0.275,0.2752,0.3076,0.3076,0.3075,0,0.2008,0.2025,0.203,0.2127,0.2141,0.2178,0.2301,0.2376,0.2509,0.2609,0.2682,0.2777,0.2838,0.2876,0.2919,0.293,0.2963,0.2996,0.2999,0.2846,0.2898,0.2752,0.2733,0.3069,0.307,0.307,0.307,0,0.1966,0.201,0.2025,0.2047,0.2138,0.2181,0.2253,0.2375,0.2467,0.2602,0.2686,0.2746,0.2837,0.2839,0.2921,0.2939,0.2945,0.2989,0.2914,0.2911,0.2708,0.2687,0.2954,0.2954,0.2954,0.2954,0.2954,0,0.1924,0.1962,0.2022,0.2039,0.2112,0.2174,0.2271,0.2364,0.2486,0.2584,0.2681,0.2751,0.2831,0.2868,0.2896,0.2881,0.2922,0.287,0.2889,0.2747,0.2731,0.2942,0.294,0.2955,0.2955,0.2954,0.2954,0,0.1893,0.1917,0.1979,0.2067,0.2095,0.2166,0.229,0.2369,0.2484,0.2607,0.2655,0.2776,0.2825,0.2863,0.2905,0.2869,0.286,0.2834,0.2671,0.2665,0.2846,0.2849,0.2767,0.2763,0.2761,0.2758,0.2756,0,0.1879,0.1881,0.1989,0.2033,0.2082,0.2175,0.2236,0.2365,0.2442,0.261,0.2659,0.2756,0.2773,0.277,0.2751,0.2728,0.2797,0.2532,0.2502,0.2787,0.2815,0.2823,0.2831,0.2323,0.2318,0.2313,0.231,0,0.1856,0.1893,0.1942,0.2029,0.2105,0.2182,0.2279,0.2314,0.2461,0.2514,0.2574,0.2589,0.2641,0.252,0.25,0.2466,0.2519,0.2439,0.2759,0.2385,0.2366,0.2396,0.2418,0.227,0.2274,0.2277,0.2279,0.2281,0.1868,0.1898,0.1951,0.2031,0.2123,0.2179,0.2189,0.2248,0.2286,0.2317,0.2394,0.2336,0.2367,0.2232,0.2157,0.2135,0.2311,0.2215,0.2229,0.2249,0.2178,0.2153,0.2006,0.2009,0.2011,0.2013,0.2014,0,0.1862,0.1888,0.194,0.2039,0.2093,0.2175,0.2207,0.2142,0.2097,0.213,0.2101,0.1895,0.1816,0.1869,0.1787,0.1772,0.1771,0.1695,0.1694,0.1735,0.1771,0.1676,0.1372,0.137,0.1368,0.1366,0,0,0.1875,0.1892,0.189,0.196,0.204,0.2057,0.2045,0.1935,0.1894,0.1716,0.1663,0.1734,0.1821,0.1573,0.1545,0.1454,0.1582,0.1397,0.1919,0.1962,0.1995,0.2084,0.1985,0,0,0,0,0]},{"header":{"parameterUnit":"m.s-1","parameterCategory":2,"la1":30.2991,"la2":30.254,"lo1":-89.0895,"lo2":-89.0444,"dy":0.0017,"dx":0.0017,"nx":28,"ny":28,"refTime":"2023-08-23T09:00:00:Z","depth":"2","parameterNumber":3,"parameterNumberName":"V-component_of_CURRENTS"},"data":[0,0,0,0,0,0,0,0,0,0,0,0,0,0,0,0,0,0,0,0,0,0,0,0,0,0,0,0,0,0,0,0,0,0,0,0,0,0,0,0,0,0,0,0,0,0,0,0,0,0,0,0,0,0,0,0,0,0,-0.0221,-0.0222,0,-0.0317,-0.0318,-0.032,-0.0391,-0.0391,-0.0391,-0.0391,-0.0508,-0.0511,-0.0513,0,0,0,0,0,0,0,0,0,0,0,0,0,-0.0186,-0.0186,-0.0221,-0.0222,-0.0223,-0.0317,-0.0318,-0.032,-0.039,-0.0391,-0.0391,-0.0391,-0.0507,-0.051,-0.0514,0,0,0,0,0,0,0,0,0,0,0,0,0,-0.0237,-0.0186,-0.0221,-0.0266,-0.0271,-0.0316,-0.0318,-0.0321,-0.039,-0.0391,-0.0391,-0.0391,-0.0506,-0.051,-0.0514,-0.0534,0,0,-0.0527,-0.0529,0,0,0,0,0,0,0,0,-0.0234,-0.0239,-0.0258,-0.0263,-0.0268,-0.0338,-0.0349,-0.0392,-0.039,-0.0349,-0.0391,-0.0392,-0.045,-0.0459,-0.0482,-0.054,-0.0545,-0.0528,-0.053,-0.0532,-0.0534,0,0,0,0,0,0,0,-0.023,-0.0236,-0.0263,-0.0259,-0.0265,-0.0311,-0.0318,-0.0358,-0.04,-0.0353,-0.0357,-0.0361,-0.0453,-0.0478,-0.0485,-0.0546,-0.0528,-0.0532,-0.0534,-0.0536,-0.0526,-0.0523,0,0,0,0,0,0,-0.0205,-0.0232,-0.026,-0.0266,-0.0247,-0.031,-0.0319,-0.0319,-0.04,-0.0411,-0.0361,-0.0364,-0.047,-0.048,-0.049,-0.049,-0.0532,-0.0536,-0.0539,-0.0529,-0.0526,-0.0522,0,0,0,0,0,0,-0.0204,-0.0206,-0.0256,-0.0248,-0.0257,-0.0309,-0.031,-0.0321,-0.0346,-0.0404,-0.0417,-0.0375,-0.0471,-0.0483,-0.05,-0.0496,-0.0538,-0.0542,-0.0532,-0.0528,-0.0524,-0.0509,0,0,0,0,0,0,-0.0202,-0.0205,-0.0201,-0.0246,-0.0256,-0.0278,-0.0309,-0.0322,-0.0346,-0.0351,-0.042,-0.0432,-0.0472,-0.0492,-0.0504,-0.0503,-0.0546,-0.0536,-0.053,-0.0525,-0.0513,-0.0505,-0.0498,0,0,0,0,0,-0.0201,-0.0205,-0.02,-0.0204,-0.0247,-0.0277,-0.0288,-0.033,-0.0346,-0.0355,-0.0382,-0.043,-0.0465,-0.0495,-0.0508,-0.0509,-0.0539,-0.0532,-0.0526,-0.0517,-0.0507,-0.0498,0,0,0,0,0,0,-0.0215,-0.0213,-0.0209,-0.0218,-0.0235,-0.0287,-0.0304,-0.0325,-0.0357,-0.0358,-0.0414,-0.0427,-0.0425,-0.0455,-0.0486,-0.0477,-0.0502,-0.0498,-0.049,-0.0481,-0.0473,-0.0525,-0.0549,0,0,0,0,0,-0.0203,-0.0191,-0.0206,-0.0214,-0.0217,-0.0255,-0.0273,-0.0292,-0.0324,-0.034,-0.0376,-0.0398,-0.0409,-0.0437,-0.0442,-0.0467,-0.0497,-0.0461,-0.0453,-0.0447,-0.049,-0.0523,-0.0525,-0.0501,-0.0501,-0.0501,0,0,-0.0214,-0.0208,-0.0206,-0.0212,-0.0232,-0.0244,-0.0269,-0.0287,-0.0307,-0.0346,-0.0375,-0.037,-0.0398,-0.0404,-0.0408,-0.044,-0.045,-0.0439,-0.0435,-0.0482,-0.0517,-0.0521,-0.0524,-0.0497,-0.0498,-0.0498,0,0,-0.0227,-0.0217,-0.0208,-0.0213,-0.0217,-0.0237,-0.0236,-0.0264,-0.0286,-0.0292,-0.0311,-0.0317,-0.0334,-0.0373,-0.0391,-0.0347,-0.039,-0.0314,-0.0358,-0.0388,-0.0393,-0.0398,-0.0379,-0.0383,-0.0336,-0.0336,-0.0336,0,-0.0249,-0.0218,-0.0217,-0.0212,-0.0208,-0.023,-0.0225,-0.0262,-0.029,-0.0292,-0.0287,-0.0298,-0.0332,-0.0369,-0.0357,-0.0342,-0.0342,-0.0404,-0.0387,-0.0392,-0.0398,-0.0378,-0.0382,-0.0334,-0.0334,-0.0334,-0.0335,0,-0.0238,-0.0223,-0.0223,-0.0207,-0.0213,-0.0208,-0.0234,-0.0241,-0.0242,-0.0262,-0.026,-0.0293,-0.0304,-0.0302,-0.0336,-0.0375,-0.035,-0.0359,-0.0431,-0.0401,-0.0379,-0.0384,-0.0332,-0.0333,-0.0333,-0.0333,0,0,-0.025,-0.022,-0.0213,-0.0187,-0.0193,-0.019,-0.0216,-0.0226,-0.0222,-0.0249,-0.0245,-0.0296,-0.0298,-0.032,-0.0346,-0.0411,-0.0437,-0.0416,-0.0418,-0.0433,-0.0463,-0.0452,-0.0456,-0.0443,-0.0445,-0.0447,-0.0413,0,-0.0233,-0.0201,-0.0193,-0.0168,-0.0145,-0.0158,-0.0172,-0.0188,-0.0191,-0.0193,-0.0251,-0.0247,-0.0311,-0.0297,-0.0376,-0.0404,-0.0458,-0.0444,-0.0461,-0.0462,-0.0488,-0.0466,-0.0425,-0.0394,-0.0418,-0.0419,-0.042,0,-0.0195,-0.017,-0.0135,-0.0098,-0.009,-0.0091,-0.0065,-0.0081,-0.0115,-0.0112,-0.0149,-0.0174,-0.0265,-0.0306,-0.0417,-0.0396,-0.0446,-0.0489,-0.0488,-0.0508,-0.0463,-0.0435,-0.0403,-0.0429,-0.0428,-0.0427,-0.0427,0,-0.014,-0.0115,-0.0071,-0.0062,-0.0048,-0.0033,-0.0028,-0.0045,-0.0037,-0.0064,-0.0038,-0.0135,-0.0143,-0.026,-0.0362,-0.038,-0.0463,-0.048,-0.052,-0.0515,-0.0507,-0.0501,-0.058,-0.058,-0.058,-0.058,-0.058,0,-0.009,-0.0058,-0.0039,-0.0013,0.0039,0.0031,0.0076,0.0065,0.0064,0.0099,0.0006,0.0023,-0.0139,-0.0201,-0.0323,-0.0424,-0.0423,-0.0542,-0.0527,-0.0487,-0.048,-0.0547,-0.0544,-0.0579,-0.0579,-0.0579,-0.0579,0,-0.0042,-0.0029,0.0018,0.0049,0.0067,0.0102,0.0139,0.0168,0.0162,0.0209,0.0205,0.0149,0.0079,-0.0075,-0.0217,-0.0335,-0.0453,-0.0491,-0.0412,-0.0393,-0.0489,-0.0485,-0.0532,-0.0532,-0.0531,-0.0531,-0.0531,0,-0.0018,0.0018,0.0067,0.0102,0.0116,0.0167,0.0205,0.0214,0.0253,0.0298,0.0331,0.0284,0.0261,0.0063,-0.0143,-0.0331,-0.0396,-0.0423,-0.0495,-0.0515,-0.0494,-0.049,-0.0486,-0.0435,-0.0434,-0.0433,-0.0433,0,0.0029,0.0046,0.0085,0.0156,0.0204,0.026,0.032,0.0375,0.0413,0.0466,0.0542,0.0528,0.0354,0.0182,-0.0084,-0.0224,-0.0399,-0.0415,-0.0456,-0.0464,-0.0425,-0.0404,-0.0403,-0.0426,-0.0427,-0.0427,-0.0428,-0.0428,0.0056,0.0089,0.0146,0.0214,0.0269,0.0352,0.0422,0.0504,0.0603,0.0698,0.0692,0.0689,0.0473,0.0146,-0.007,-0.0307,-0.0335,-0.0437,-0.0438,-0.0441,-0.0447,-0.0411,-0.0407,-0.0408,-0.0408,-0.0409,-0.0409,0,0.01,0.0138,0.0204,0.0286,0.0361,0.0373,0.0498,0.058,0.073,0.0803,0.0856,0.0683,0.0483,0.0234,-0.0099,-0.032,-0.0349,-0.0389,-0.0378,-0.0383,-0.0387,-0.0392,-0.0337,-0.0337,-0.0337,-0.0337,0,0,0.0122,0.0188,0.0224,0.0353,0.0413,0.0513,0.059,0.0718,0.0806,0.0901,0.0909,0.0849,0.0559,0.0335,0.0047,-0.0135,-0.0212,-0.0176,-0.0213,-0.017,-0.0172,-0.0395,-0.0405,0,0,0,0,0]}],[{"header":{"parameterUnit":"m.s-1","parameterCategory":2,"la1":30.2991,"la2":30.254,"lo1":-89.0895,"lo2":-89.0444,"dy":0.0017,"dx":0.0017,"nx":28,"ny":28,"refTime":"2023-08-23T09:00:00:Z","depth":"4","parameterNumber":2,"parameterNumberName":"U-component_of_CURRENTS"},"data":[0,0,0,0,0,0,0,0,0,0,0,0,0,0,0,0,0,0,0,0,0,0,0,0,0,0,0,0,0,0,0,0,0,0,0,0,0,0,0,0,0,0,0,0,0,0,0,0,0,0,0,0,0,0,0,0,0,0,0.0966,0.0966,0,0.0968,0.0967,0.0967,0.0965,0.0965,0.0966,0.0966,0.1052,0.1054,0.1056,0,0,0,0,0,0,0,0,0,0,0,0,0,0.0912,0.0913,0.0966,0.0966,0.0967,0.0968,0.0967,0.0967,0.0965,0.0965,0.0966,0.0966,0.1051,0.1053,0.1056,0,0,0,0,0,0,0,0,0,0,0,0,0,0.0923,0.0913,0.0966,0.0968,0.0969,0.0968,0.0967,0.0967,0.0965,0.0965,0.0966,0.0966,0.105,0.1053,0.1056,0.1068,0,0,0.1066,0.1067,0,0,0,0,0,0,0,0,0.0923,0.0925,0.0968,0.0968,0.0969,0.097,0.098,0.1006,0.0965,0.0963,0.0966,0.0966,0.1034,0.1038,0.1032,0.1072,0.1076,0.1066,0.1068,0.1069,0.107,0,0,0,0,0,0,0,0.0922,0.0925,0.0963,0.0968,0.0969,0.0953,0.0955,0.0984,0.0995,0.0963,0.0964,0.0969,0.1035,0.1029,0.1034,0.1077,0.1066,0.1069,0.107,0.1072,0.1174,0.1175,0,0,0,0,0,0,0.0931,0.0924,0.0963,0.0964,0.095,0.0954,0.0956,0.0966,0.0993,0.0998,0.0969,0.0969,0.1023,0.103,0.1037,0.1118,0.1069,0.1072,0.1074,0.1173,0.1174,0.1175,0,0,0,0,0,0,0.093,0.0935,0.0963,0.0946,0.0949,0.0955,0.0966,0.0966,0.0984,0.0997,0.1003,0.099,0.1024,0.1033,0.1088,0.1119,0.1073,0.1076,0.1172,0.1173,0.1175,0.1238,0,0,0,0,0,0,0.0929,0.0934,0.095,0.0947,0.0951,0.0979,0.0966,0.0966,0.0987,0.0988,0.1017,0.1023,0.1025,0.1084,0.1091,0.1122,0.1079,0.1171,0.1173,0.1174,0.1235,0.1241,0.1247,0,0,0,0,0,0.0927,0.0937,0.0951,0.0956,0.097,0.098,0.098,0.0982,0.0988,0.0998,0.1025,0.1024,0.1099,0.1088,0.1096,0.1129,0.117,0.1172,0.1174,0.1232,0.124,0.1247,0,0,0,0,0,0,0.0904,0.0938,0.0953,0.097,0.0987,0.0981,0.0993,0.0998,0.1024,0.1037,0.1046,0.1055,0.1099,0.111,0.1098,0.1159,0.113,0.1134,0.1171,0.1179,0.1185,0.1176,0.1081,0,0,0,0,0,0.0914,0.0943,0.0962,0.0978,0.0992,0.1001,0.1008,0.1016,0.1034,0.1045,0.1069,0.1093,0.1109,0.1144,0.1149,0.1209,0.1199,0.1229,0.1235,0.1241,0.1238,0.1246,0.1253,0.1181,0.1181,0.1181,0,0,0.0913,0.0933,0.0951,0.0979,0.0992,0.101,0.1006,0.103,0.1047,0.1055,0.1097,0.111,0.1122,0.1166,0.1189,0.1191,0.1259,0.1243,0.1248,0.1241,0.1249,0.1256,0.1262,0.1183,0.1182,0.1182,0,0,0.0914,0.0945,0.0971,0.0989,0.1023,0.1031,0.1047,0.1068,0.1084,0.1128,0.1126,0.1163,0.1206,0.1217,0.1228,0.1276,0.1271,0.1286,0.1339,0.1349,0.1355,0.136,0.137,0.1376,0.1313,0.1313,0.1313,0,0.0912,0.0947,0.0976,0.0997,0.1017,0.1045,0.1069,0.1084,0.1121,0.1146,0.1151,0.1205,0.122,0.1266,0.1284,0.129,0.1298,0.1315,0.1357,0.1362,0.1366,0.1375,0.138,0.1316,0.1316,0.1316,0.1315,0,0.0931,0.0962,0.0976,0.1022,0.1043,0.1072,0.1101,0.1135,0.1167,0.1185,0.124,0.1263,0.13,0.1312,0.1321,0.1367,0.1363,0.1346,0.134,0.1377,0.1385,0.1389,0.1321,0.132,0.1319,0.1318,0,0,0.0924,0.0982,0.0991,0.1017,0.1066,0.1082,0.1124,0.1171,0.1207,0.125,0.1296,0.1334,0.1361,0.1373,0.1393,0.1419,0.1462,0.1415,0.1414,0.1428,0.1496,0.1424,0.1421,0.1464,0.1465,0.1465,0.1494,0,0.0938,0.0978,0.1009,0.1053,0.1079,0.112,0.1154,0.1199,0.1244,0.1294,0.1333,0.1377,0.1381,0.142,0.1445,0.1453,0.1475,0.1456,0.1455,0.1455,0.1388,0.1424,0.1468,0.1497,0.1498,0.1499,0.1499,0,0.0951,0.098,0.1022,0.1079,0.1097,0.1129,0.1201,0.1238,0.1307,0.1345,0.1404,0.1428,0.1491,0.1473,0.1518,0.1515,0.151,0.1507,0.1508,0.1417,0.1389,0.1448,0.1507,0.1506,0.1506,0.1505,0.1505,0,0.0927,0.099,0.1026,0.1045,0.1109,0.1147,0.1195,0.1262,0.1303,0.1388,0.1429,0.149,0.1538,0.1543,0.1557,0.1549,0.1583,0.1563,0.1486,0.1482,0.151,0.1504,0.1566,0.1566,0.1566,0.1566,0.1566,0,0.0918,0.0951,0.1025,0.1042,0.1096,0.1151,0.1218,0.1268,0.1349,0.1398,0.1465,0.1507,0.1559,0.1586,0.1575,0.1553,0.16,0.1494,0.1483,0.1538,0.1534,0.1514,0.1507,0.1567,0.1567,0.1567,0.1567,0,0.0872,0.0922,0.0965,0.1049,0.1081,0.112,0.1223,0.1266,0.1356,0.142,0.1452,0.1543,0.1591,0.1615,0.1632,0.1577,0.1555,0.1525,0.1596,0.1588,0.1444,0.144,0.1447,0.1444,0.1442,0.1441,0.1439,0,0.0844,0.0865,0.0956,0.0985,0.1028,0.1103,0.115,0.1254,0.1299,0.1424,0.1444,0.1534,0.1578,0.1552,0.1584,0.1561,0.1532,0.1504,0.1457,0.1442,0.1432,0.1431,0.1431,0.1436,0.1436,0.1435,0.1435,0,0.0793,0.0837,0.0875,0.0936,0.0991,0.1044,0.1127,0.115,0.1265,0.1357,0.1408,0.1433,0.1487,0.1508,0.1507,0.148,0.1515,0.1483,0.1486,0.1442,0.143,0.1421,0.1423,0.1428,0.1429,0.143,0.143,0,0.0755,0.0774,0.0833,0.0879,0.0938,0.0968,0.102,0.1085,0.1143,0.1282,0.1297,0.139,0.148,0.1466,0.1459,0.1442,0.1412,0.1341,0.1351,0.1359,0.1315,0.1286,0.1232,0,0,0,0,0,0.0713,0.0737,0.0775,0.0817,0.0869,0.0909,0.0995,0.105,0.1159,0.1165,0.123,0.1274,0.1301,0.135,0.1313,0.1407,0.1406,0.1355,0.1326,0.139,0.1398,0.1353,0,0,0,0,0,0,0.069,0.0725,0.0752,0.0754,0.0774,0.0825,0.0876,0.0949,0.0965,0.108,0.1109,0.1194,0.1243,0.1313,0.129,0.1301,0.1253,0.1415,0.1412,0.1386,0.1393,0.1399,0.1356,0,0,0,0,0]},{"header":{"parameterUnit":"m.s-1","parameterCategory":2,"la1":30.2991,"la2":30.254,"lo1":-89.0895,"lo2":-89.0444,"dy":0.0017,"dx":0.0017,"nx":28,"ny":28,"refTime":"2023-08-23T09:00:00:Z","depth":"4","parameterNumber":3,"parameterNumberName":"V-component_of_CURRENTS"},"data":[0,0,0,0,0,0,0,0,0,0,0,0,0,0,0,0,0,0,0,0,0,0,0,0,0,0,0,0,0,0,0,0,0,0,0,0,0,0,0,0,0,0,0,0,0,0,0,0,0,0,0,0,0,0,0,0,0,0,-0.0051,-0.0051,0,-0.0069,-0.007,-0.007,-0.0071,-0.0071,-0.0071,-0.007,-0.0157,-0.0159,-0.0162,0,0,0,0,0,0,0,0,0,0,0,0,0,-0.004,-0.0041,-0.0051,-0.0051,-0.0052,-0.0069,-0.007,-0.007,-0.0071,-0.0071,-0.0071,-0.007,-0.0156,-0.0159,-0.0162,0,0,0,0,0,0,0,0,0,0,0,0,0,-0.0051,-0.0041,-0.0051,-0.0054,-0.0054,-0.0069,-0.007,-0.007,-0.0071,-0.0071,-0.0071,-0.007,-0.0155,-0.0158,-0.0162,-0.0193,0,0,-0.0174,-0.0175,0,0,0,0,0,0,0,0,-0.005,-0.0051,-0.0053,-0.0054,-0.0054,-0.0067,-0.0097,-0.0114,-0.0071,-0.0065,-0.007,-0.007,-0.0133,-0.0139,-0.0142,-0.0197,-0.0201,-0.0174,-0.0176,-0.0178,-0.0179,0,0,0,0,0,0,0,-0.0049,-0.0051,-0.0059,-0.0054,-0.0054,-0.0062,-0.0063,-0.01,-0.0103,-0.0066,-0.0066,-0.0067,-0.0134,-0.0139,-0.0145,-0.0202,-0.0174,-0.0177,-0.018,-0.0181,-0.031,-0.0311,0,0,0,0,0,0,-0.0046,-0.005,-0.0058,-0.0059,-0.0051,-0.0063,-0.0064,-0.0064,-0.0101,-0.0105,-0.0068,-0.0067,-0.0132,-0.014,-0.0148,-0.0208,-0.0178,-0.0182,-0.0184,-0.0309,-0.031,-0.0312,0,0,0,0,0,0,-0.0045,-0.0046,-0.0058,-0.0055,-0.0057,-0.0063,-0.0063,-0.0064,-0.0071,-0.0101,-0.0107,-0.0073,-0.0132,-0.0143,-0.0185,-0.0211,-0.0183,-0.0187,-0.0308,-0.0309,-0.0311,-0.0315,0,0,0,0,0,0,-0.0045,-0.0046,-0.0049,-0.0054,-0.0057,-0.0072,-0.0064,-0.0065,-0.0072,-0.0072,-0.0108,-0.0115,-0.0133,-0.018,-0.0189,-0.0215,-0.019,-0.0306,-0.0308,-0.0311,-0.0313,-0.0317,-0.0319,0,0,0,0,0,-0.0044,-0.0057,-0.0049,-0.005,-0.0059,-0.0073,-0.0075,-0.0079,-0.0073,-0.0082,-0.0104,-0.0114,-0.02,-0.0184,-0.0194,-0.0222,-0.0305,-0.0308,-0.031,-0.0312,-0.0316,-0.0319,0,0,0,0,0,0,-0.0065,-0.0058,-0.005,-0.0062,-0.0066,-0.0073,-0.0085,-0.0081,-0.0104,-0.0106,-0.0129,-0.0138,-0.0183,-0.0205,-0.0186,-0.0266,-0.0255,-0.026,-0.0253,-0.0257,-0.026,-0.0229,-0.0193,0,0,0,0,0,-0.0067,-0.0069,-0.0066,-0.0078,-0.0079,-0.0079,-0.0086,-0.0085,-0.0102,-0.0111,-0.0135,-0.0168,-0.0203,-0.023,-0.026,-0.0309,-0.031,-0.0335,-0.0338,-0.0341,-0.0324,-0.0344,-0.0346,-0.032,-0.032,-0.032,0,0,-0.0081,-0.0076,-0.008,-0.0081,-0.0085,-0.0085,-0.0083,-0.0095,-0.01,-0.012,-0.0146,-0.0177,-0.0216,-0.0264,-0.0287,-0.0287,-0.0353,-0.0344,-0.0346,-0.0327,-0.0347,-0.0349,-0.0351,-0.0322,-0.0322,-0.0321,0,0,-0.0097,-0.0103,-0.0098,-0.01,-0.0099,-0.0102,-0.0104,-0.0111,-0.0119,-0.0149,-0.0163,-0.0202,-0.0261,-0.0288,-0.0312,-0.0352,-0.0362,-0.0375,-0.0375,-0.0395,-0.0397,-0.0398,-0.0416,-0.0419,-0.0384,-0.0385,-0.0385,0,-0.0104,-0.0095,-0.0104,-0.0097,-0.0092,-0.0106,-0.0095,-0.0117,-0.0138,-0.0143,-0.016,-0.0228,-0.0269,-0.0313,-0.0332,-0.0358,-0.0368,-0.0357,-0.0397,-0.0398,-0.0399,-0.0417,-0.042,-0.0385,-0.0385,-0.0385,-0.0385,0,-0.0104,-0.0098,-0.0103,-0.0088,-0.0093,-0.0094,-0.0109,-0.0124,-0.0139,-0.0152,-0.0194,-0.0249,-0.028,-0.0318,-0.0343,-0.038,-0.0384,-0.039,-0.0381,-0.0402,-0.042,-0.0423,-0.0386,-0.0386,-0.0385,-0.0385,0,0,-0.0091,-0.0094,-0.009,-0.0072,-0.0079,-0.0078,-0.0099,-0.0105,-0.0105,-0.0159,-0.0163,-0.0248,-0.0266,-0.0292,-0.0335,-0.0371,-0.0408,-0.0389,-0.039,-0.0394,-0.0451,-0.0424,-0.0425,-0.0421,-0.0422,-0.0422,-0.0465,0,-0.007,-0.0049,-0.0057,-0.004,-0.0024,-0.0042,-0.0052,-0.007,-0.0098,-0.0118,-0.0182,-0.021,-0.0262,-0.0279,-0.0325,-0.038,-0.0413,-0.0395,-0.044,-0.0441,-0.0404,-0.0427,-0.0423,-0.0467,-0.0467,-0.0468,-0.0468,0,-0.0042,-0.0029,-0.0002,0.0013,0.0019,0.0022,0.0027,0.0014,-0.003,-0.0052,-0.0098,-0.0142,-0.021,-0.0245,-0.0345,-0.0331,-0.0384,-0.0433,-0.0435,-0.0403,-0.0419,-0.044,-0.0473,-0.0473,-0.0473,-0.0472,-0.0472,0,0.0,0.0018,0.0046,0.005,0.0053,0.0066,0.0067,0.0041,0.004,-0.0005,-0.0012,-0.0094,-0.0128,-0.0212,-0.0321,-0.0331,-0.0421,-0.0444,-0.0468,-0.0467,-0.0475,-0.0473,-0.0496,-0.0496,-0.0496,-0.0496,-0.0495,0,0.004,0.0062,0.007,0.0085,0.0124,0.0113,0.0141,0.0125,0.0108,0.0112,0.0031,0.0014,-0.0121,-0.0194,-0.0295,-0.0387,-0.0398,-0.046,-0.0473,-0.048,-0.0478,-0.0478,-0.0476,-0.0497,-0.0497,-0.0497,-0.0496,0,0.0075,0.0079,0.0115,0.0133,0.0144,0.0172,0.0195,0.0209,0.0188,0.019,0.0181,0.0095,-0.0001,-0.0131,-0.0266,-0.0338,-0.0437,-0.0463,-0.0453,-0.0466,-0.0479,-0.0476,-0.0495,-0.0494,-0.0494,-0.0493,-0.0493,0,0.009,0.0113,0.0152,0.0179,0.019,0.0227,0.0252,0.0249,0.0263,0.024,0.0244,0.0162,0.0089,-0.0073,-0.0219,-0.0391,-0.0416,-0.046,-0.0481,-0.0466,-0.0478,-0.0476,-0.0474,-0.0492,-0.0492,-0.0492,-0.0492,0,0.0122,0.0138,0.0165,0.0219,0.0257,0.0298,0.0333,0.0354,0.035,0.0334,0.0309,0.0214,0.011,-0.0047,-0.0172,-0.0302,-0.0432,-0.0455,-0.0458,-0.0478,-0.0463,-0.0474,-0.0473,-0.049,-0.049,-0.049,-0.049,0,0.0147,0.0169,0.0206,0.0256,0.0306,0.0352,0.037,0.0392,0.0406,0.0383,0.0376,0.0251,0.0175,0.0,-0.0123,-0.024,-0.028,-0.0318,-0.0328,-0.0332,-0.0278,-0.0235,-0.0196,0,0,0,0,0,0.0171,0.0193,0.0237,0.029,0.034,0.0367,0.0414,0.0424,0.0429,0.0428,0.0406,0.0311,0.0134,0.0049,-0.0063,-0.0133,-0.0314,-0.0267,-0.0365,-0.0479,-0.0481,-0.0443,0,0,0,0,0,0,0.0183,0.0223,0.0238,0.031,0.0347,0.0401,0.0434,0.0439,0.0439,0.0427,0.0336,0.0289,0.0112,0.0198,-0.0064,-0.0103,-0.0177,-0.0356,-0.0358,-0.0477,-0.048,-0.0481,-0.0443,0,0,0,0,0]}]]